Stündliche Wetter Aba

Heute, 28 Februar, Sonntag

Zeit Temperatur Niederschläge Wind Luftdruck Luftfeuchtigkeit
00:00 +2°C° 0 mm 5 m/S 767 mmHg 72%
01:00 +2°C° 0 mm 5 m/S 767 mmHg 74%
02:00 +3°C° 0 mm 4 m/S 767 mmHg 75%
03:00 +3°C° 0 mm 4 m/S 767 mmHg 76%
04:00 +3°C° 0 mm 3 m/S 766 mmHg 76%
05:00 +2°C° 0 mm 3 m/S 767 mmHg 78%
06:00 +3°C° 0 mm 2 m/S 767 mmHg 79%
07:00 +3°C° 0 mm 2 m/S 767 mmHg 81%
08:00 +4°C° 0 mm 2 m/S 767 mmHg 76%
09:00 +5°C° 0 mm 2 m/S 767 mmHg 70%
10:00 +6°C° 0 mm 2 m/S 767 mmHg 65%
11:00 +7°C° 0 mm 3 m/S 767 mmHg 61%
12:00 +8°C° 0 mm 3 m/S 766 mmHg 57%
13:00 +9°C° 0 mm 3 m/S 766 mmHg 53%
14:00 +9°C° 0 mm 3 m/S 766 mmHg 53%
15:00 +9°C° 0 mm 3 m/S 765 mmHg 54%
16:00 +9°C° 0 mm 3 m/S 765 mmHg 54%
17:00 +8°C° 0 mm 3 m/S 765 mmHg 59%
18:00 +7°C° 0 mm 2 m/S 765 mmHg 65%
19:00 +6°C° 0 mm 2 m/S 765 mmHg 70%
20:00 +5°C° 0 mm 2 m/S 765 mmHg 72%
21:00 +4°C° 0 mm 3 m/S 765 mmHg 73%
22:00 +3°C° 0 mm 3 m/S 765 mmHg 75%
23:00 +3°C° 0 mm 3 m/S 764 mmHg 74%

Morgen, 1 März, Montag

Zeit Temperatur Niederschläge Wind Luftdruck Luftfeuchtigkeit
00:00 +3°C° 0 mm 3 m/S 764 mmHg 73%
01:00 +3°C° 0 mm 3 m/S 764 mmHg 73%
02:00 +3°C° 0 mm 3 m/S 764 mmHg 74%
03:00 +2°C° 0 mm 3 m/S 764 mmHg 76%
04:00 +1°C° 0 mm 4 m/S 763 mmHg 77%
05:00 +2°C° 0 mm 3 m/S 764 mmHg 80%
06:00 +2°C° 0 mm 3 m/S 764 mmHg 83%
07:00 +1°C° 0 mm 3 m/S 765 mmHg 85%
08:00 +3°C° 0 mm 3 m/S 765 mmHg 78%
09:00 +6°C° 0 mm 2 m/S 765 mmHg 71%
10:00 +7°C° 0 mm 2 m/S 766 mmHg 63%
11:00 +8°C° 0 mm 2 m/S 766 mmHg 60%
12:00 +9°C° 0 mm 2 m/S 766 mmHg 56%
13:00 +10°C° 0 mm 2 m/S 766 mmHg 52%
14:00 +10°C° 0 mm 2 m/S 766 mmHg 52%
15:00 +10°C° 0 mm 2 m/S 766 mmHg 51%
16:00 +10°C° 0 mm 2 m/S 765 mmHg 51%
17:00 +9°C° 0 mm 2 m/S 766 mmHg 56%
18:00 +9°C° 0 mm 1 m/S 766 mmHg 61%
19:00 +8°C° 0 mm 1 m/S 766 mmHg 66%
20:00 +8°C° 0 mm 1 m/S 767 mmHg 69%
21:00 +7°C° 0 mm 1 m/S 767 mmHg 71%
22:00 +7°C° 0 mm 1 m/S 767 mmHg 73%
23:00 +6°C° 0 mm 1 m/S 767 mmHg 75%

übermorgen, 2 März, Dienstag

Zeit Temperatur Niederschläge Wind Luftdruck Luftfeuchtigkeit
00:00 +6°C° 0 mm 1 m/S 767 mmHg 77%
01:00 +5°C° 0 mm 1 m/S 767 mmHg 79%
02:00 +5°C° 0 mm 1 m/S 767 mmHg 80%
03:00 +4°C° 0 mm 0 m/S 767 mmHg 81%
04:00 +3°C° 0 mm 0 m/S 767 mmHg 83%
05:00 +3°C° 0 mm 0 m/S 767 mmHg 83%
06:00 +3°C° 0 mm 0 m/S 767 mmHg 83%
07:00 +3°C° 0 mm 0 m/S 767 mmHg 83%
08:00 +6°C° 0 mm 1 m/S 767 mmHg 77%
09:00 +8°C° 0 mm 1 m/S 767 mmHg 70%
10:00 +9°C° 0 mm 1 m/S 767 mmHg 63%
11:00 +9°C° 0 mm 2 m/S 767 mmHg 59%
12:00 +10°C° 0 mm 2 m/S 767 mmHg 55%
13:00 +12°C° 0 mm 2 m/S 767 mmHg 50%
14:00 +12°C° 0 mm 2 m/S 766 mmHg 50%
15:00 +12°C° 0 mm 2 m/S 766 mmHg 49%
16:00 +13°C° 0 mm 2 m/S 765 mmHg 49%
17:00 +11°C° 0 mm 1 m/S 765 mmHg 53%
18:00 +10°C° 0 mm 1 m/S 766 mmHg 57%
19:00 +9°C° 0 mm 1 m/S 766 mmHg 62%
20:00 +8°C° 0 mm 1 m/S 766 mmHg 63%
21:00 +8°C° 0 mm 1 m/S 766 mmHg 65%
22:00 +8°C° 0 mm 1 m/S 765 mmHg 66%
23:00 +7°C° 0 mm 1 m/S 765 mmHg 68%

3 März, Mittwoch

Zeit Temperatur Niederschläge Wind Luftdruck Luftfeuchtigkeit
00:00 +7°C° 0 mm 1 m/S 765 mmHg 70%
01:00 +6°C° 0 mm 1 m/S 765 mmHg 71%
02:00 +6°C° 0 mm 1 m/S 765 mmHg 72%
03:00 +6°C° 0 mm 1 m/S 765 mmHg 73%
04:00 +6°C° 0 mm 1 m/S 765 mmHg 74%
05:00 +5°C° 0 mm 1 m/S 765 mmHg 75%
06:00 +5°C° 0 mm 1 m/S 765 mmHg 75%
07:00 +5°C° 0 mm 1 m/S 765 mmHg 76%
08:00 +7°C° 0 mm 1 m/S 765 mmHg 69%
09:00 +9°C° 0 mm 1 m/S 765 mmHg 62%
10:00 +10°C° 0 mm 1 m/S 765 mmHg 56%
11:00 +12°C° 0 mm 1 m/S 764 mmHg 51%
12:00 +13°C° 0 mm 2 m/S 764 mmHg 47%
13:00 +14°C° 0 mm 2 m/S 763 mmHg 43%
14:00 +14°C° 0 mm 2 m/S 763 mmHg 43%
15:00 +14°C° 0 mm 2 m/S 762 mmHg 43%
16:00 +14°C° 0 mm 2 m/S 762 mmHg 43%
17:00 +13°C° 0 mm 1 m/S 762 mmHg 48%
18:00 +11°C° 0 mm 1 m/S 762 mmHg 53%
19:00 +10°C° 0 mm 1 m/S 761 mmHg 57%
20:00 +9°C° 0 mm 1 m/S 761 mmHg 59%
21:00 +9°C° 0 mm 1 m/S 761 mmHg 60%
22:00 +8°C° 0 mm 1 m/S 761 mmHg 62%
23:00 +8°C° 0 mm 1 m/S 760 mmHg 63%

4 März, Donnerstag

Zeit Temperatur Niederschläge Wind Luftdruck Luftfeuchtigkeit
00:00 +8°C° 0 mm 1 m/S 760 mmHg 64%
01:00 +7°C° 0 mm 1 m/S 759 mmHg 66%
02:00 +7°C° 0 mm 1 m/S 759 mmHg 67%
03:00 +7°C° 0 mm 1 m/S 758 mmHg 68%
04:00 +6°C° 0 mm 1 m/S 758 mmHg 70%
05:00 +6°C° 0 mm 1 m/S 758 mmHg 71%
06:00 +6°C° 0 mm 1 m/S 757 mmHg 72%
07:00 +6°C° 0 mm 1 m/S 757 mmHg 73%
08:00 +6°C° 0 mm 2 m/S 757 mmHg 67%
09:00 +8°C° 0 mm 2 m/S 756 mmHg 61%
10:00 +10°C° 0 mm 2 m/S 756 mmHg 56%
11:00 +12°C° 0 mm 2 m/S 755 mmHg 52%
12:00 +12°C° 0 mm 3 m/S 755 mmHg 48%
13:00 +14°C° 0 mm 3 m/S 754 mmHg 44%
14:00 +14°C° 0 mm 3 m/S 753 mmHg 45%
15:00 +14°C° 0 mm 3 m/S 753 mmHg 45%
16:00 +14°C° 0 mm 3 m/S 752 mmHg 46%
17:00 +12°C° 0 mm 3 m/S 752 mmHg 52%
18:00 +11°C° 0 mm 3 m/S 751 mmHg 57%
19:00 +10°C° 0 mm 2 m/S 751 mmHg 63%
20:00 +9°C° 0 mm 3 m/S 751 mmHg 64%
21:00 +9°C° 0 mm 3 m/S 751 mmHg 65%
22:00 +8°C° 0 mm 3 m/S 751 mmHg 66%
23:00 +8°C° 0 mm 3 m/S 750 mmHg 70%

5 März, Freitag

Zeit Temperatur Niederschläge Wind Luftdruck Luftfeuchtigkeit
00:00 +6°C° 0 mm 4 m/S 750 mmHg 74%
01:00 +6°C° 0 mm 4 m/S 750 mmHg 77%
02:00 +6°C° 0 mm 4 m/S 750 mmHg 78%
03:00 +6°C° 0 mm 4 m/S 750 mmHg 78%
04:00 +6°C° 0 mm 4 m/S 750 mmHg 78%
05:00 +6°C° 0 mm 4 m/S 750 mmHg 79%
06:00 +6°C° 0 mm 4 m/S 750 mmHg 79%
07:00 +6°C° 0 mm 4 m/S 750 mmHg 80%
08:00 +7°C° 0.3 mm 4 m/S 750 mmHg 79%
09:00 +8°C° 0.3 mm 5 m/S 750 mmHg 78%
10:00 +9°C° 0.3 mm 5 m/S 750 mmHg 77%
11:00 +10°C° 0.3 mm 4 m/S 750 mmHg 73%
12:00 +10°C° 0.3 mm 4 m/S 750 mmHg 70%
13:00 +11°C° 0.3 mm 3 m/S 750 mmHg 67%
14:00 +11°C° 0 mm 3 m/S 750 mmHg 65%
15:00 +11°C° 0 mm 3 m/S 750 mmHg 63%
16:00 +11°C° 0 mm 3 m/S 750 mmHg 61%
17:00 +10°C° 0 mm 4 m/S 750 mmHg 64%
18:00 +8°C° 0 mm 4 m/S 751 mmHg 67%
19:00 +7°C° 0 mm 5 m/S 751 mmHg 69%
20:00 +6°C° 0.1 mm 5 m/S 752 mmHg 69%
21:00 +5°C° 0.1 mm 5 m/S 753 mmHg 68%
22:00 +3°C° 0.1 mm 6 m/S 754 mmHg 67%
23:00 +2°C° 0 mm 6 m/S 754 mmHg 67%
Mehr zeigen

Wir brauchen deine Erlaubnis

Meteoprog und unser Service Anbieter werden persönliche Daten aufbewahren, so wie Cookies, Geräte Bezeichnung oder ähnliche Technologien von deinem Gerät und Prozess, so wie Persönliche Daten Inhalte und Werbungen, genauso wie social Media und den Verkehr zu analysieren.

  • Aufbewahrung und/oder Zugang zu deiner Geräte Informationen.

    Cookies, Geräte Bezeichnung oder andere Informationen, können aufbewahrt oder Zugang zu deinem Gerät erhalten, für den Grund, der oben angegeben wird.

  • Personalisierte Werbung und Inhalte, Messungen, Einblick in das Publikum und Produkt Entwicklung.

    Werbungen und Inhalte können personalisiert werden, basierend auf ein Profil. Mehr Daten können besser personalisierte Werbungen und Inhalte hinzufügen. Werbung und Inhalte können gezeigt und gemessen werden. Einblicke über das Publikum, welche die Werbung gesehen haben und den Inhalt, können abgeleitet werden. So wie Daten können genutzt werden, um es zu verbessern oder die Benutzer Erfahrung zu verbessern das System und die Software.

Wenn du “Ich stimme zu” klickst, erlaubst du uns, die Cookies zu benutzen die Geräte Bezeichnung, den Web oder ähnliche Technologien zu benutzen. Deine Settings, können in deinem Gerät bei deinem Browser geändert werden.

Für den bestimmten Zweck, berechtigten Interessen beruhen darauf, mehr als auf den Inhalt. Du kannst mehr darüber in unseren Privaten und Cookie Politik lesen.